Regional Weather Roundup
Issued by NWS Bismarck, ND

Home | Current Version | Previous Version | Text Only | Print | Product List | Glossary On
Versions: 1 2 3 4 5 6 7 8 9 10 11 12 13 14 15 16 17 18 19 20 21 22 23 24 25 26 27 28 29 30 31 32 33 34 35 36 37 38 39 40 41 42 43 44 45 46 47 48 49 50
000
ASUS43 KBIS 300601
RWRBIS

NWR BROADCAST TEXT
NATIONAL WEATHER SERVICE BISMARCK ND
100 AM CDT MON MAR 30 2015

NOTE: "FAIR" INDICATES FEW OR NO CLOUDS BELOW 12,000 FEET WITH NO
SIGNIFICANT WEATHER AND/OR OBSTRUCTIONS TO VISIBILITY.


CITY           SKY/WX    TMP DP  RH WIND       PRES   REMARKS
WILLISTON      MOCLDY    42  33  70 SW7       29.87S
MINOT          MOCLDY    39  31  72 SE3       29.86F
MINOT AFB      MOCLDY    35  35  99 S8        29.85F
BISMARCK       PTCLDY    38  31  76 CALM      29.93F
DICKINSON      CLEAR     39  28  64 SW8       29.91F
GARRISON         N/A     38  30  73 S3        29.88F
HETTINGER ARPT PTCLDY    30  25  81 CALM      29.97F
JAMESTOWN      PTCLDY    34  29  82 CALM      29.91F
CARRINGTON     FAIR      37  32  81 SW8       29.92F
OAKES            N/A     37  30  75 SW6       29.95F
$$

CITY           SKY/WX    TMP DP  RH WIND       PRES   REMARKS
GRAND FORKS    CLEAR     32  27  81 W7        29.90S
GRAND FORKS AF NOT AVBL
DEVILS LAKE    CLOUDY    30  27  86 CALM      29.89F
FARGO          CLEAR     34  26  72 W7        29.93R
GWINNER        CLOUDY    39  32  75 W9          N/A
ROLLA          MOCLDY    32  32 100 SW7       29.89R
$$

CITY           SKY/WX    TMP DP  RH WIND       PRES   REMARKS
ABERDEEN       MOCLDY    30  22  72 SW7       29.98F
MOBRIDGE       CLOUDY    43  32  65 SE7       29.95F
BUFFALO          N/A     40  27  59 SW7       29.92F
RAPID CITY     PTCLDY    46  28  49 S7        30.03F
GLASGOW        PTCLDY    44  30  57 W10       29.88F
SIDNEY         PTCLDY    39  30  70 S6        29.90S
WOLF POINT     CLEAR     38  31  76 W3        29.89S
GLENDIVE         N/A     37  28  70 W9        29.93F
MILES CITY     PTCLDY    44  27  51 S5        29.96S
BAKER          CLEAR     43  27  53 SW8       29.97S
$$

CITY           SKY/WX    TMP DP  RH WIND       PRES   REMARKS
BILLINGS       PTCLDY    50  21  32 SW10      30.03S
GREAT FALLS    CLOUDY    51  30  44 SW22G29   30.02S
$$




USA.gov is the U.S. government's official web portal to all federal, state and local government web resources and services.